Location: Agendoh
(31.0664°N, 8.9343°W)
Time: 20:39:40
(UTC+00:00)

Cosmos 2034 Rocket - Pass Details

Date: 06 December 2021
Orbit: 959 x 1000 km, 82.9° (Epoch: 16 January)

Event Time Altitude Azimuth Distance (km) Brightness Sun altitude
Exits shadow 04:47:44 53° 170° (S) 1,192 4.4 -31.9°
Drops below altitude 10° 04:52:25 10° 174° (S) 2,743 6.5 -30.9°
Sets 04:54:56 0° 175° (S) 3,693 7.2 -30.4°
